This demonstration page uses our WeatherBlox Daily Observations layout. Learn more.

41.55636, -103.73856

Hourly Observations for August 29, 2015

Temp ( °F °C ) Dew Point ( °F °C ) Humidity (%) Winds ( mph kmh ) Pressure ( in mb ) Visibility ( mi km ) Precip ( " mm )
12:53 am 00:53 Clear 61 16.1 50 10 67 67 Calm 30.03 1017 8 12.87472 0 0
1:53 am 01:53 Clear 55 12.8 50 10 83 83 NW 7 11 30.05 1018 7 11.26538 0 0
2:53 am 02:53 Clear 56 13.3 50 10 81 81 NNW 3 6 30.04 1017 7 11.26538 0 0
3:53 am 03:53 Clear 53 11.7 49 9.4 86 86 N 3 6 30.04 1017 7 11.26538 0 0
4:53 am 04:53 Clear 53 11.7 49 9.4 86 86 E 6 9 30.04 1017 7 11.26538 0 0
5:53 am 05:53 Clear 53 11.7 49 9.4 86 86 ESE 3 6 30.05 1018 8 12.87472 0 0
6:53 am 06:53 Sunny with Mist and Fog 53 11.7 49 9.4 86 86 ESE 3 6 30.07 1018 6 9.65604 0 0
7:53 am 07:53 Sunny 58 14.4 51 10.6 78 78 E 5 7 30.08 1019 7 11.26538 0 0
8:53 am 08:53 Sunny 63 17.2 50 10 63 63 E 5 7 30.08 1019 7 11.26538 0 0
9:53 am 09:53 Sunny 70 21.1 53 11.7 55 55 E 5 7 30.06 1018 8 12.87472 0 0
10:53 am 10:53 Sunny 77 25 54 12.2 45 45 ESE 7 11 30.04 1017 8 12.87472 0 0
11:53 am 11:53 Sunny 83 28.3 57 13.9 41 41 E 9 15 30.01 1016 8 12.87472 0 0
12:53 pm 12:53 Sunny 89 31.7 52 11.1 28 28 E 8 13 29.97 1015 8 12.87472 0 0
1:53 pm 13:53 Sunny 93 33.9 42 5.6 17 17 SSW 12 19 29.95 1014 7 11.26538 0 0
2:53 pm 14:53 Sunny 93 33.9 40 4.4 16 16 S 9 15 29.93 1013 7 11.26538 0 0
3:53 pm 15:53 Hazy 92 33.3 43 6.1 18 18 S 9 15 29.91 1013 6 9.65604 0 0
4:53 pm 16:53 Hazy 91 32.8 45 7.2 20 20 SSE 12 19 29.9 1012 6 9.65604 0 0
5:53 pm 17:53 Hazy 88 31.1 42 5.6 20 20 SSE 13 20 29.89 1012 5 8.0467 0 0
6:53 pm 18:53 Hazy 82 27.8 41 5 23 23 SE 8 13 29.9 1013 5 8.0467 0 0
7:53 pm 19:53 Hazy 70 21.1 49 9.4 47 47 ESE 8 13 29.92 1013 6 9.65604 0 0
8:53 pm 20:53 Hazy 68 20 48 8.9 49 49 ESE 8 13 29.93 1014 6 9.65604 0 0
9:53 pm 21:53 Hazy 65 18.3 49 9.4 56 56 ESE 9 15 29.92 1013 6 9.65604 0 0
10:53 pm 22:53 Clear 64 17.8 48 8.9 56 56 E 9 15 29.91 1013 8 12.87472 0 0
11:53 pm 23:53 Clear 66 18.9 46 7.8 49 49 E 9 15 29.89 1012 8 12.87472 0 0

Powered by AerisWeather